Weather History for Hamilton Airport, ON

Change the Weather History Date:

Tuesday, October 23, 2012

  Actual Average Record
Temperature  
Mean Temperature 49 °F -  
Max Temperature 52 °F 48 °F 66 °F (2001)
Min Temperature 46 °F 34 °F 26 °F (2003)
Degree Days  
Heating Degree Days 16    
Moisture  
Dew Point 49 °F    
Average Humidity 99    
Maximum Humidity 100    
Minimum Humidity 88    
Precipitation  
Precipitation 0.31 in 0.10 in - ()
Sea Level Pressure  
Sea Level Pressure 30.05 in    
Wind  
Wind Speed 11 mph ()    
Max Wind Speed 20 mph    
Max Gust Speed 29 mph    
Visibility 1.6 miles    
Events Fog , Rain    
Averages and records for this station are not official NWS values.
T = Trace of Precipitation, MM = Missing Value Source: Averaged Metar Reports

Daily Weather History Graph

Daily Weather History Graph

Search for Another Location

Airport:

Trip Planner

Search our weather history database for the weather conditions in past years. The results will help you decide how hot, cold, wet, or windy it might be!

Date:

Astronomy

Oct. 23, 2012 Rise Set
Actual Time 7:43 AM EDT 6:23 PM EDT
Civil Twilight 7:14 AM EDT 6:52 PM EDT
Nautical Twilight 6:41 AM EDT 7:25 PM EDT
Astronomical Twilight 6:08 AM EDT 7:58 PM EDT
Moon 3:14 PM EDT (10/23) 1:24 AM EDT (10/23)
Length of Visible Light 11h 37m
Length of Day
10h 39m
Waxing Gibbous, 66% of the Moon is Illuminated
Oct 23
Waxing Gibbous
Oct 29
Full
Nov 6
Last Quarter
Nov 13
New
Nov 20
First Quarter

Hourly Weather History & Observations

Time (EDT) Temp. Windchill Dew Point Humidity Pressure Visibility Wind Dir Wind Speed Gust Speed Precip Events Conditions
12:00 AM 53.6 °F - 50.0 °F 88% 30.05 in 15.0 mi SSE 9.2 mph - N/A Rain Light Rain Showers
1:00 AM 53.6 °F - 51.8 °F 94% 30.04 in 12.0 mi NE 5.8 mph - N/A Rain Light Rain Showers
2:00 AM 53 °F - 51 °F 92% 30.05 in 5 mi NNE 4.6 mph - - Rain Light Rain Showers
3:00 AM 51.8 °F - 51.8 °F 100% 30.04 in 2.0 mi East 3.5 mph - N/A Rain Light Rain Showers
4:00 AM 51.8 °F - 51.8 °F 100% 30.03 in 2.0 mi ENE 6.9 mph - N/A Rain Light Rain Showers
5:00 AM 51.8 °F - 51.8 °F 100% 30.03 in 1.0 mi NE 6.9 mph - N/A Rain Light Rain Showers
6:00 AM 50.0 °F - 50.0 °F 100% 30.04 in 1.0 mi ENE 10.4 mph - N/A Rain Light Rain Showers
6:22 AM 50.0 °F - 50.0 °F 100% 30.03 in 1.5 mi NE 10.4 mph - N/A Rain Light Rain Showers
7:00 AM 50.0 °F - 50.0 °F 100% 30.04 in 1.8 mi NE 10.4 mph - N/A Rain Light Rain Showers
7:33 AM 50.0 °F - 50.0 °F 100% 30.04 in 1.5 mi ENE 15.0 mph - N/A Rain Light Rain Showers
8:00 AM 50 °F - 50 °F 98% 30.04 in 2 mi NE 12.7 mph - - Rain Light Rain Showers
8:00 AM 50.0 °F - 50.0 °F 100% 30.04 in 1.8 mi NE 12.7 mph - N/A Rain Light Rain Showers
8:31 AM 50.0 °F - 48.2 °F 94% 30.06 in 1.5 mi NE 12.7 mph - N/A Rain Light Rain Showers
8:37 AM 48.2 °F - 48.2 °F 100% 30.06 in 1.0 mi NE 15.0 mph - N/A   Light Drizzle
9:00 AM 48.2 °F - 48.2 °F 100% 30.05 in 0.2 mi NE 16.1 mph - N/A Fog , Rain Light Rain Showers
9:14 AM 48.2 °F - 48.2 °F 100% 30.05 in 0.8 mi NE 15.0 mph - N/A Rain Light Rain Showers
9:24 AM 48.2 °F - 48.2 °F 100% 30.04 in 1.2 mi NNE 16.1 mph - N/A Rain Light Rain Showers
9:43 AM 48.2 °F - 48.2 °F 100% 30.05 in 0.8 mi NE 18.4 mph - N/A Rain Light Rain Showers
10:00 AM 48.2 °F - 48.2 °F 100% 30.06 in 0.8 mi NE 16.1 mph - N/A Rain Light Rain Showers
10:04 AM 48.2 °F - 48.2 °F 100% 30.06 in 1.0 mi NE 15.0 mph - N/A Rain Rain Showers
10:30 AM 48.2 °F - 48.2 °F 100% 30.05 in 1.8 mi NE 18.4 mph - N/A Rain Light Rain Showers
11:00 AM 48.2 °F - 48.2 °F 100% 30.04 in 2.2 mi NE 17.3 mph - N/A Rain Light Rain Showers
11:10 AM 48.2 °F - 48.2 °F 100% 30.05 in 1.8 mi NE 17.3 mph 24.2 mph N/A Rain Light Rain Showers
11:20 AM 48.2 °F - 48.2 °F 100% 30.05 in 0.1 mi NE 17.3 mph - N/A Fog , Rain Light Rain Showers
11:42 AM 48.2 °F - 48.2 °F 100% 30.04 in 0.0 mi NE 18.4 mph - N/A Fog , Rain Light Rain Showers
12:00 PM 48.2 °F - 48.2 °F 100% 30.04 in 0.0 mi NE 16.1 mph 24.2 mph N/A Fog Fog
12:34 PM 48.2 °F - 48.2 °F 100% 30.04 in 0.0 mi NE 15.0 mph 21.9 mph N/A Fog , Rain Light Rain Showers
1:00 PM 48.2 °F - 48.2 °F 100% 30.04 in 0.1 mi NE 16.1 mph - N/A Fog , Rain Light Rain Showers
1:25 PM 48.2 °F - 48.2 °F 100% 30.03 in 0.6 mi NE 13.8 mph 21.9 mph N/A Rain Light Rain Showers
1:51 PM 48.2 °F - 48.2 °F 100% 30.02 in 0.1 mi NNE 17.3 mph - N/A Fog , Rain Light Rain Showers
2:00 PM 48 °F - 48 °F 100% 30.03 in 0 mi NNE 15.0 mph - - Rain Light Rain Showers
2:00 PM 48.2 °F - 48.2 °F 100% 30.03 in 0.0 mi NNE 16.1 mph - N/A Fog , Rain Light Rain Showers
3:00 PM 48.2 °F - 48.2 °F 100% 30.03 in 0.1 mi NE 15.0 mph 20.7 mph N/A Fog , Rain Light Rain Showers
4:00 PM 48.2 °F - 48.2 °F 100% 30.03 in 0.1 mi NE 15.0 mph 20.7 mph N/A Fog , Rain Light Rain Showers
5:00 PM 48.2 °F - 48.2 °F 100% 30.03 in 0.1 mi NE 15.0 mph 23.0 mph N/A Fog , Rain Light Rain Showers
6:00 PM 46.4 °F 39.5 °F 46.4 °F 100% 30.04 in 0.1 mi NE 17.3 mph 26.5 mph N/A Fog , Rain Light Rain Showers
7:00 PM 46.4 °F 39.2 °F 46.4 °F 100% 30.06 in 0.4 mi NE 18.4 mph 25.3 mph N/A Fog , Rain Light Rain Showers
7:40 PM 46.4 °F 39.5 °F 46.4 °F 100% 30.08 in 0.6 mi NE 17.3 mph - N/A Rain Light Rain Showers
8:00 PM 47 °F - 47 °F 100% 30.09 in 1 mi NE 19.6 mph - - Rain Light Rain Showers
8:00 PM 46.4 °F 39.0 °F 46.4 °F 100% 30.09 in 0.6 mi NE 19.6 mph - N/A Rain Light Rain Showers
9:00 PM 46.4 °F 39.2 °F 46.4 °F 100% 30.09 in 1.0 mi NE 18.4 mph 24.2 mph N/A Rain Light Rain Showers
10:00 PM 46.4 °F 39.2 °F 46.4 °F 100% 30.10 in 2.0 mi NE 18.4 mph 25.3 mph N/A Rain Light Rain Showers
11:00 PM 46.4 °F 39.5 °F 46.4 °F 100% 30.10 in 2.2 mi NE 17.3 mph 28.8 mph N/A Rain Light Rain Showers